星链-34937(STARLINK-34937)

导读

STARLINK-34937是美国SpaceX星链星座成员,于2025年10月26日发射入轨,属于星链互联网卫星网络扩容项目。该卫星依托星链部署计划,为全球偏远地区、移动载体提供低延迟高速卫星互联网服务,是美国打造全球低轨卫星通信网络进程中的一颗组网卫星。

基本信息
目录编号:
66192
目录名称:
STARLINK-34937
国际标识:
2025-243R
轨道中心:
EARTH
卫星名称:
星链-34937
卫星全名:
星链-34937(STARLINK-34937)
卫星状态:
在轨 (已飞行314 天)
发射日期:
2025-10-26 UTC
国别 :
美国 (US)
星等 :
--
轨道信息
数据来源 国际轨道数据
星历时间: 2026-09-05T10:04:43+0800
9小时前
查看轨道信息
半长轴: 6840.663km
偏心率: 0.0000757
轨道倾角: 53.159°
近地点辐角 307.363°
升交点赤经 129.608°
平近点角 52.731°
近地点: 462.008km
远地点: 463.044km
周期: 93.844分钟
每日圈数: 15.344598
详细信息
固有亮度:
5
最大亮度:
2.5
卫星平台:
Starlink V1.0
覆盖范围:
全球
运营商:
太空探索技术公司
运营商所在国:
美国
制造商(研发单位):
太空探索技术公司
制造商所在国:
美国
使用方式:
暂无
卫星简介
Starlink 计划是 SpaceX 推出的全球卫星互联网项目,通过发射低轨道卫星,为全球尤其是偏远地区提供高速、低延迟的互联网服务。自 2019 年起,Starlink 已部署数千颗卫星,旨在缩小全球数字鸿沟,推动互联网普及。该项目还为军事、航空等行业提供通信支持,带来广泛经济效益。
2D轨道图
3D轨道图
轨道高度分析图
轨道倾角分析图
轨道综合分析图
查看轨道综合分析图
交会数据列表
事件ID 空间交会对象 最接近时刻(TCA) 交会距离 交会风险概率(CRP) 交会风险指数(CRI) 操作
CDM_260905-213805-404306-619222
2026-09-05T
21:38:25+0000
0.382 km
远距离
2.961309E-4 高风险 0.84
CDM_260906-224405-211806-619221
2026-09-06T
22:44:07+0000
0.723 km
远距离
6.665626E-5 中风险 0.71
CDM_260907-102705-211806-619221
2026-09-07T
10:27:32+0000
0.927 km
远距离
2.996103E-5 中风险 0.65
CDM_260907-142106-419106-619221
2026-09-07T
14:21:06+0000
2.223 km
极远距离
1.940483E-6 低风险 0.41
CDM_260907-155406-419106-619221
2026-09-07T
15:54:53+0000
2.405 km
极远距离
1.652737E-6 低风险 0.39
CDM_260829-112005-286006-619221
2026-08-29T
11:20:07+0000
2.836 km
极远距离
1.277686E-6 低风险 0.37